When you browse on this site, cookies collect data to enhance your experience and personalize the content and advertising you see.
Visit our Privacy Policy to learn more. By continuing to use the site, you agree to this use of cookies and data.
  • In Deutschland
  • Länderverzeichnis
  • Für 7 Tage
  • Wassertemperatur
  • Wetterkarte
  • Widgets
  • user-avatar
    Anmelden

    Stündliche Wetter Thimbu

    Heute, 23 September, Montag

    Zeit Temperatur Niederschläge Wind Luftdruck Luftfeuchtigkeit
    00:00 +9°C° 0 mm 0 m/S 527 mmHg 97%
    01:00 +9°C° 0 mm 0 m/S 527 mmHg 96%
    02:00 +9°C° 0 mm 0 m/S 527 mmHg 96%
    03:00 +9°C° 0 mm 0 m/S 526 mmHg 96%
    04:00 +9°C° 0.1 mm 0 m/S 526 mmHg 96%
    05:00 +9°C° 0.1 mm 0 m/S 527 mmHg 95%
    06:00 +9°C° 0 mm 0 m/S 527 mmHg 97%
    07:00 +10°C° 0 mm 0 m/S 528 mmHg 92%
    08:00 +13°C° 0 mm 1 m/S 529 mmHg 87%
    09:00 +14°C° 0 mm 1 m/S 530 mmHg 82%
    10:00 +15°C° 0.4 mm 1 m/S 530 mmHg 80%
    11:00 +16°C° 0.4 mm 1 m/S 530 mmHg 78%
    12:00 +16°C° 0 mm 2 m/S 530 mmHg 76%
    13:00 +16°C° 0.4 mm 2 m/S 529 mmHg 78%
    14:00 +15°C° 0.4 mm 2 m/S 529 mmHg 81%
    15:00 +15°C° 0.4 mm 2 m/S 528 mmHg 83%
    16:00 +14°C° 0.5 mm 1 m/S 528 mmHg 88%
    17:00 +13°C° 0.5 mm 1 m/S 527 mmHg 92%
    18:00 +12°C° 0.5 mm 1 m/S 527 mmHg 96%
    19:00 +12°C° 0.3 mm 1 m/S 527 mmHg 97%
    20:00 +11°C° 0.3 mm 1 m/S 528 mmHg 97%
    21:00 +11°C° 0.3 mm 1 m/S 528 mmHg 97%
    22:00 +11°C° 0.2 mm 1 m/S 528 mmHg 97%
    23:00 +11°C° 0.2 mm 1 m/S 528 mmHg 97%

    Morgen, 24 September, Dienstag

    Zeit Temperatur Niederschläge Wind Luftdruck Luftfeuchtigkeit
    00:00 +9°C° 0.2 mm 0 m/S 528 mmHg 98%
    01:00 +9°C° 0.6 mm 0 m/S 528 mmHg 97%
    02:00 +9°C° 0.6 mm 0 m/S 528 mmHg 97%
    03:00 +9°C° 0.6 mm 0 m/S 527 mmHg 97%
    04:00 +9°C° 0.1 mm 0 m/S 527 mmHg 97%
    05:00 +9°C° 0.1 mm 0 m/S 527 mmHg 96%
    06:00 +9°C° 0.1 mm 0 m/S 527 mmHg 96%
    07:00 +10°C° 0 mm 0 m/S 529 mmHg 91%
    08:00 +13°C° 0 mm 1 m/S 530 mmHg 85%
    09:00 +14°C° 0 mm 1 m/S 531 mmHg 80%
    10:00 +15°C° 0.3 mm 1 m/S 531 mmHg 77%
    11:00 +16°C° 0.3 mm 1 m/S 531 mmHg 74%
    12:00 +17°C° 0.3 mm 2 m/S 532 mmHg 71%
    13:00 +16°C° 0.7 mm 2 m/S 531 mmHg 76%
    14:00 +16°C° 0.7 mm 2 m/S 530 mmHg 81%
    15:00 +15°C° 0.7 mm 2 m/S 529 mmHg 85%
    16:00 +14°C° 0.6 mm 1 m/S 528 mmHg 90%
    17:00 +13°C° 0.6 mm 1 m/S 528 mmHg 94%
    18:00 +11°C° 0.6 mm 1 m/S 527 mmHg 98%
    19:00 +11°C° 0.1 mm 1 m/S 528 mmHg 97%
    20:00 +10°C° 0.1 mm 0 m/S 528 mmHg 97%
    21:00 +10°C° 0.1 mm 0 m/S 529 mmHg 97%
    22:00 +10°C° 0 mm 0 m/S 529 mmHg 96%
    23:00 +10°C° 0 mm 0 m/S 528 mmHg 96%

    übermorgen, 25 September, Mittwoch

    Zeit Temperatur Niederschläge Wind Luftdruck Luftfeuchtigkeit
    00:00 +10°C° 0 mm 0 m/S 528 mmHg 95%
    01:00 +9°C° 0 mm 0 m/S 528 mmHg 95%
    02:00 +9°C° 0 mm 0 m/S 528 mmHg 94%
    03:00 +9°C° 0 mm 0 m/S 528 mmHg 93%
    04:00 +8°C° 0 mm 0 m/S 528 mmHg 93%
    05:00 +8°C° 0 mm 0 m/S 528 mmHg 92%
    06:00 +8°C° 0 mm 0 m/S 528 mmHg 91%
    07:00 +11°C° 0 mm 1 m/S 529 mmHg 86%
    08:00 +13°C° 0 mm 1 m/S 531 mmHg 81%
    09:00 +15°C° 0 mm 1 m/S 532 mmHg 76%
    10:00 +16°C° 0.1 mm 1 m/S 532 mmHg 74%
    11:00 +16°C° 0.1 mm 2 m/S 532 mmHg 71%
    12:00 +17°C° 0.1 mm 2 m/S 532 mmHg 69%
    13:00 +16°C° 0.5 mm 2 m/S 532 mmHg 75%
    14:00 +16°C° 0.5 mm 2 m/S 531 mmHg 80%
    15:00 +15°C° 0.5 mm 2 m/S 530 mmHg 86%
    16:00 +14°C° 0.3 mm 1 m/S 529 mmHg 90%
    17:00 +13°C° 0.3 mm 1 m/S 529 mmHg 94%
    18:00 +11°C° 0.3 mm 0 m/S 528 mmHg 97%
    19:00 +10°C° 0 mm 0 m/S 529 mmHg 97%
    20:00 +10°C° 0 mm 0 m/S 529 mmHg 97%
    21:00 +10°C° 0 mm 0 m/S 530 mmHg 96%
    22:00 +10°C° 0 mm 0 m/S 530 mmHg 95%
    23:00 +9°C° 0 mm 0 m/S 529 mmHg 95%

    26 September, Donnerstag

    Zeit Temperatur Niederschläge Wind Luftdruck Luftfeuchtigkeit
    00:00 +9°C° 0 mm 0 m/S 529 mmHg 94%
    01:00 +9°C° 0 mm 0 m/S 529 mmHg 93%
    02:00 +8°C° 0 mm 0 m/S 528 mmHg 93%
    03:00 +8°C° 0 mm 0 m/S 528 mmHg 93%
    04:00 +8°C° 0 mm 0 m/S 528 mmHg 92%
    05:00 +8°C° 0 mm 1 m/S 528 mmHg 91%
    06:00 +8°C° 0 mm 1 m/S 528 mmHg 90%
    07:00 +11°C° 0 mm 1 m/S 529 mmHg 84%
    08:00 +13°C° 0 mm 1 m/S 531 mmHg 78%
    09:00 +16°C° 0 mm 1 m/S 533 mmHg 72%
    10:00 +16°C° 0.1 mm 2 m/S 533 mmHg 69%
    11:00 +17°C° 0.1 mm 2 m/S 533 mmHg 66%
    12:00 +18°C° 0.1 mm 2 m/S 533 mmHg 63%
    13:00 +18°C° 0.3 mm 2 m/S 532 mmHg 67%
    14:00 +17°C° 0.3 mm 2 m/S 531 mmHg 71%
    15:00 +16°C° 0.3 mm 2 m/S 530 mmHg 75%
    16:00 +15°C° 0.3 mm 1 m/S 529 mmHg 82%
    17:00 +13°C° 0.3 mm 1 m/S 528 mmHg 89%
    18:00 +12°C° 0.3 mm 1 m/S 527 mmHg 96%
    19:00 +10°C° 0.1 mm 0 m/S 528 mmHg 96%
    20:00 +10°C° 0.1 mm 0 m/S 528 mmHg 96%
    21:00 +10°C° 0.1 mm 0 m/S 528 mmHg 96%
    22:00 +10°C° 0.1 mm 0 m/S 528 mmHg 96%
    23:00 +9°C° 0.1 mm 0 m/S 528 mmHg 95%

    27 September, Freitag

    Zeit Temperatur Niederschläge Wind Luftdruck Luftfeuchtigkeit
    00:00 +9°C° 0.1 mm 0 m/S 528 mmHg 94%
    01:00 +9°C° 0 mm 0 m/S 528 mmHg 94%
    02:00 +9°C° 0 mm 0 m/S 528 mmHg 94%
    03:00 +9°C° 0 mm 1 m/S 527 mmHg 93%
    04:00 +9°C° 0 mm 1 m/S 527 mmHg 92%
    05:00 +9°C° 0 mm 1 m/S 527 mmHg 90%
    06:00 +8°C° 0 mm 1 m/S 527 mmHg 88%
    07:00 +11°C° 0 mm 1 m/S 529 mmHg 81%
    08:00 +14°C° 0 mm 1 m/S 531 mmHg 74%
    09:00 +16°C° 0 mm 1 m/S 532 mmHg 67%
    10:00 +17°C° 0.2 mm 2 m/S 532 mmHg 66%
    11:00 +17°C° 0.2 mm 2 m/S 532 mmHg 65%
    12:00 +18°C° 0.2 mm 2 m/S 532 mmHg 64%
    13:00 +17°C° 0.8 mm 2 m/S 531 mmHg 69%
    14:00 +17°C° 0.8 mm 2 m/S 530 mmHg 75%
    15:00 +16°C° 0.8 mm 2 m/S 529 mmHg 80%
    16:00 +14°C° 0.7 mm 2 m/S 528 mmHg 85%
    17:00 +13°C° 0.7 mm 1 m/S 527 mmHg 91%
    18:00 +11°C° 0.7 mm 1 m/S 526 mmHg 96%
    19:00 +10°C° 0.2 mm 0 m/S 527 mmHg 96%
    20:00 +9°C° 0.2 mm 0 m/S 527 mmHg 96%
    21:00 +9°C° 0.2 mm 0 m/S 527 mmHg 97%
    22:00 +9°C° 0.2 mm 0 m/S 527 mmHg 96%
    23:00 +9°C° 0.2 mm 0 m/S 527 mmHg 96%

    28 September, Samstag

    Zeit Temperatur Niederschläge Wind Luftdruck Luftfeuchtigkeit
    00:00 +9°C° 0.2 mm 0 m/S 527 mmHg 96%
    01:00 +9°C° 0.1 mm 0 m/S 527 mmHg 95%
    02:00 +8°C° 0.1 mm 0 m/S 527 mmHg 95%
    03:00 +8°C° 0.1 mm 0 m/S 527 mmHg 94%
    04:00 +8°C° 0 mm 0 m/S 526 mmHg 93%
    05:00 +8°C° 0 mm 1 m/S 526 mmHg 93%
    06:00 +8°C° 0 mm 1 m/S 526 mmHg 93%
    07:00 +10°C° 0.1 mm 1 m/S 528 mmHg 87%
    08:00 +13°C° 0.1 mm 1 m/S 529 mmHg 82%
    09:00 +15°C° 0.1 mm 1 m/S 531 mmHg 76%
    10:00 +15°C° 0.9 mm 1 m/S 531 mmHg 77%
    11:00 +16°C° 0.9 mm 2 m/S 530 mmHg 77%
    12:00 +16°C° 0.9 mm 2 m/S 530 mmHg 78%
    13:00 +16°C° 1 mm 2 m/S 529 mmHg 79%
    14:00 +15°C° 1 mm 2 m/S 529 mmHg 81%
    15:00 +15°C° 1 mm 2 m/S 528 mmHg 83%
    16:00 +13°C° 0.8 mm 1 m/S 527 mmHg 87%
    17:00 +12°C° 0.8 mm 1 m/S 527 mmHg 92%
    18:00 +10°C° 0.8 mm 1 m/S 526 mmHg 96%
    19:00 +10°C° 0.2 mm 1 m/S 526 mmHg 96%
    20:00 +10°C° 0.2 mm 1 m/S 527 mmHg 96%
    21:00 +9°C° 0.2 mm 1 m/S 527 mmHg 95%
    22:00 +9°C° 0.2 mm 1 m/S 527 mmHg 95%
    23:00 +9°C° 0.2 mm 0 m/S 527 mmHg 94%
    Mehr zeigen